COSMOS 2251 DEB

Satellite information

Favourite Embed

Satellite Type and Status

DEBRISIN ORBIT

Key statistics

Satellite COSMOS 2251 DEB at a glance.

Uptime

11647

Days in orbit

Revolutions

≈ 14.4

Per day

Orbit

LEO

Low Earth Orbit

Inclination

74.0

Latest

Satellite identification and parameters

Extended collection of information and parameters for COSMOS 2251 DEB.

Object identification

Identified? True

Debris? True

Object name: COSMOS 2251 DEB

International designator: 1993-036ANN

Object number (NORAD): 35647

Object ID (CCSDS): 35647

Country: COMMONWEALTH OF INDEPENDENT STATES (CIS)

Current information (Y/N): Y

RCS size: SMALL

Orbital parameters

Period: 99.831 minutes

Inclination: 74.0246 deg

SMA: 7128.613 km

Apoapsis: 785.58 km

Periapsis: 715.376 km

RAAN: 346.7697 deg

Eccentricy: 0.0049241

Argument of periapsis: 142.247 deg

Mean anomaly: 218.2158 deg

Mean motion: 14.424315 rev/day

Mean motion (dot): 0.00003002 rev/day2

B* drag term: 0.00090158 1/REarth

Two-line elements (TLE)

Creation date: May 4, 2025, 10:36 p.m.

Reference frame: TEME

Reference center: EARTH

Epoch: May 4, 2025, 9:41 p.m. UTC

TLE line 0: 0 COSMOS 2251 DEB

TLE line 1: 1 35647U 93036ANN 25124.90405530 .00003002 00000-0 90158-3 0 9997

TLE line 2: 2 35647 74.0246 346.7697 0049241 142.2470 218.2158 14.42431500833131

Live tracking on map

Real-time ground track for satellite COSMOS 2251 DEB.

In-orbit conjunctions

A list of the most updated potential collisions computed for object COSMOS 2251 DEB.

Target Orbit TCA Probability of collision Miss distance Type
OSCAR 17 (DOVE) SSO 2025-05-04 11:20:22 0.001048368 182.0 (m) PAYLOAD
CZ-6A DEB LEO 2025-01-31 11:36:47 0.0001769263 412.0 (m) DEBRIS
IRIDIUM 33 DEB LEO 2024-06-16 05:01:46 0.0001075252 300.0 (m) DEBRIS

Associated space launch

Military communications satellite. Destroyed in a collision with Iridium 33.

COSMOS 2251 DEB was lifted into orbit during the mission ‘Kosmos-3M | Strela-2M 51’, on board a Kosmos-3M space rocket.

The launch took place on June 16, 1993, 4:17 a.m. from 132/1 (132L).

For more information about the launch, click the button.

Launch to space Kosmos-3M | Strela-2M 51
Kosmos-3M | Strela-2M 51

Agency: N/A

Status: Launch Successful

Launch date: June 16, 1993, 4:17 a.m. UTC

Rocket: Kosmos-3M

Launch pad: 132/1 (132L)

Location: Plesetsk Cosmodrome, Russian Federation

...

Latest news about this satellite

There are no fresh news available about this satellite. Check back as we update our databases every day.


Newsletter sign-up

Weekly statistics, charts and insights to help you stay on top of the space industry.